Cape Byron Observation History
Time Wind Speed Temp Pressure Rel. Hum Rain
01/06:00am SW 13-15 kts 20.2°c 1016.9 hPa 99% 0.0mm
01/05:30am WSW 13-16 kts 20.3°c 1016.8 hPa 98% 0.0mm
01/05:00am SW 12-15 kts 20.4°c 1016.6 hPa 98% 0.0mm
01/04:30am WSW 11-13 kts 20.5°c 1016.4 hPa 97% 0.0mm
01/04:00am SW 11-13 kts 20.5°c 1016.2 hPa 99% 0.0mm
01/03:30am SW 12-15 kts 20.6°c 1016.3 hPa 98% 0.0mm
01/03:00am WSW 12-16 kts 20.6°c 1016.3 hPa 99% 0.0mm
01/02:30am WSW 11-15 kts 20.9°c 1016.5 hPa 97% 0.0mm
01/02:00am SW 10-12 kts 21.0°c 1016.5 hPa 97% 0.0mm
01/01:30am SW 11-13 kts 21.2°c 1016.6 hPa 97% 0.0mm
01/01:00am WSW 9-11 kts 21.5°c 1016.9 hPa 94% 0.0mm
01/12:30am SW 9-11 kts 21.9°c 1017.0 hPa 91% 0.0mm
01/12:00am SW 10-13 kts 22.3°c 1017.0 hPa 89% 0.0mm
Time Wind Speed Temp Pressure Rel. Hum Rain
31/11:30pm SSE 10-13 kts 23.8°c 1017.2 hPa 80% 0.0mm
31/11:00pm SSE 11-13 kts 23.9°c 1017.2 hPa 78% 0.0mm
31/10:30pm SE 10-15 kts 23.9°c 1017.2 hPa 79% 0.0mm
31/10:00pm SE 11-16 kts 24.0°c 1017.1 hPa 78% 0.0mm
31/09:30pm SSE 11-17 kts 24.3°c 1017.0 hPa 78% 0.0mm
31/09:00pm SSE 12-15 kts 24.0°c 1016.8 hPa 80% 0.0mm
31/08:30pm S 13-18 kts 24.2°c 1016.5 hPa 79% 0.0mm
31/08:00pm S 15-19 kts 24.0°c 1016.1 hPa 82% 0.0mm
31/07:30pm SSW 15-18 kts 23.7°c 1015.7 hPa 87% 0.0mm
31/07:00pm SSW 17-19 kts 23.7°c 1015.4 hPa 86% 0.0mm
31/06:30pm SSW 17-21 kts 23.8°c 1015.1 hPa 83% 0.0mm
31/06:00pm S 15-17 kts 24.2°c 1015.0 hPa 78% 0.0mm
31/05:30pm S 17-20 kts 24.3°c 1014.7 hPa 78% 0.0mm
31/05:00pm S 17-21 kts 24.4°c 1014.6 hPa 78% 0.0mm
31/04:30pm S 16-19 kts 24.4°c 1014.3 hPa 75% 0.0mm
31/04:00pm S 15-19 kts 24.7°c 1014.3 hPa 75% 0.0mm
31/03:30pm S 16-19 kts 24.7°c 1014.2 hPa 76% 0.0mm
31/03:00pm S 17-21 kts 24.8°c 1014.1 hPa 74% 0.0mm
31/02:30pm S 16-20 kts 24.8°c 1014.2 hPa 71% 0.0mm
31/02:00pm S 17-20 kts 24.7°c 1014.3 hPa 68% 0.0mm
31/01:30pm S 18-21 kts 24.6°c 1014.5 hPa 71% 0.0mm
31/01:00pm S 15-20 kts 24.7°c 1014.7 hPa 69% 0.0mm
31/12:30pm S 16-19 kts 25.2°c 1015.2 hPa 65% 0.0mm
31/12:00pm S 10-14 kts 25.2°c 1015.7 hPa 72% 0.0mm
31/11:30am SSW 11-16 kts 25.8°c 1015.8 hPa 61% 0.0mm
31/11:00am WSW 8-11 kts 25.1°c 1015.9 hPa 63% 0.0mm
31/10:30am WSW 8-13 kts 25.4°c 1016.0 hPa 62% 0.0mm
31/10:00am WSW 4-6 kts 24.4°c 1015.8 hPa 78% 0.0mm
31/09:30am SSW 5-7 kts 23.2°c 1015.9 hPa 85% 0.0mm
31/09:00am NW 4-7 kts 22.6°c 1015.4 hPa 87% 0.0mm
31/08:30am NW 4-5 kts 22.1°c 1015.0 hPa 90% 0.0mm
31/08:00am NNW 4-7 kts 21.7°c 1014.5 hPa 91% 0.0mm
31/07:30am NW 5-8 kts 21.6°c 1014.3 hPa 92% 0.0mm
31/07:00am NNW 3-6 kts 21.7°c 1014.2 hPa 90% 0.0mm
31/06:30am NNW 4-7 kts 21.4°c 1013.9 hPa 87% 0.0mm
31/06:00am NW 3-4 kts 21.8°c 1013.9 hPa 88% 0.0mm
31/05:30am NW 4-7 kts 22.4°c 1013.8 hPa 88% 0.0mm
31/05:00am NW 4-7 kts 22.4°c 1013.5 hPa 88% 0.0mm
31/04:30am NNW 5-8 kts 22.4°c 1013.7 hPa 88% 0.0mm
31/04:00am NW 4-6 kts 22.3°c 1013.9 hPa 88% 0.0mm
31/03:30am NNW 6-13 kts 22.7°c 1014.0 hPa 85% 0.0mm
31/03:00am NNW 7-11 kts 22.7°c 1014.1 hPa 86% 0.0mm
31/02:30am NNE 5-12 kts 22.5°c 1014.3 hPa 86% 0.0mm
31/02:00am NNW 6-11 kts 22.7°c 1014.5 hPa 85% 0.0mm
31/01:30am NW 6-10 kts 22.6°c 1014.7 hPa 86% 0.0mm
31/01:00am NNW 5-10 kts 22.6°c 1014.9 hPa 87% 0.0mm
31/12:30am NNW 5-9 kts 22.7°c 1015.0 hPa 88% 0.0mm
31/12:00am NNW 5-11 kts 23.0°c 1015.3 hPa 88% 0.0mm
Time Wind Speed Temp Pressure Rel. Hum Rain
30/11:30pm N 7-11 kts 23.3°c 1015.3 hPa 86% 0.0mm
30/11:00pm NNW 8-12 kts 23.4°c 1015.3 hPa 86% 0.0mm
30/10:30pm N 7-11 kts 23.5°c 1015.6 hPa 84% 0.0mm
30/10:00pm NNW 7-11 kts 23.8°c 1016.0 hPa 83% 0.0mm
30/09:30pm N 11-16 kts 23.9°c 1015.9 hPa 81% 0.0mm
30/09:00pm N 12-15 kts 24.2°c 1015.8 hPa 81% 0.0mm
30/08:30pm N 12-17 kts 24.3°c 1015.7 hPa 79% 0.0mm
30/08:00pm N 12-16 kts 24.2°c 1015.2 hPa 80% 0.0mm
30/07:30pm N 13-18 kts 24.3°c 1014.9 hPa 79% 0.0mm
30/07:00pm N 13-19 kts 24.3°c 1014.9 hPa 79% 0.0mm
30/06:30pm NNE 12-20 kts 24.3°c 1014.9 hPa 77% 0.0mm
30/06:00pm NNE 12-17 kts 24.7°c 1014.7 hPa 75% 0.0mm
30/05:30pm NNE 12-17 kts 24.9°c 1014.5 hPa 74% 0.0mm
30/05:00pm NNE 11-16 kts 25.1°c 1014.4 hPa 71% 0.0mm
30/04:30pm NE 13-17 kts 25.7°c 1014.3 hPa 70% 0.0mm
30/04:00pm NNE 9-14 kts 25.9°c 1014.6 hPa 67% 0.0mm
30/03:30pm NNE 8-11 kts 26.2°c 1014.6 hPa 67% 0.0mm
30/03:00pm NE 11-15 kts 26.3°c 1014.7 hPa 68% 0.0mm
30/02:30pm NE 11-15 kts 26.0°c 1014.9 hPa 69% 0.0mm
30/02:00pm NNE 9-13 kts 26.4°c 1015.3 hPa 67% 0.0mm
30/01:30pm NE 12-14 kts 26.6°c 1015.7 hPa 66% 0.0mm
30/01:00pm NE 11-14 kts 26.6°c 1016.1 hPa 66% 0.0mm
30/12:30pm NE 9-11 kts 27.0°c 1016.7 hPa 69% 0.0mm
30/12:00pm ENE 8-9 kts 26.2°c 1017.1 hPa 70% 0.0mm
30/11:30am NNE 5-6 kts 25.7°c 1017.4 hPa 67% 0.0mm
30/11:00am NNE 4-5 kts 25.2°c 1017.5 hPa 68% 0.0mm
30/10:30am NNE 4-5 kts 24.5°c 1017.5 hPa 67% 0.0mm
30/10:00am NNE 3-5 kts 24.3°c 1017.3 hPa 73% 0.0mm
30/09:30am SSW 3-4 kts 22.5°c 1017.2 hPa 82% 0.0mm
30/09:00am W 4-6 kts 21.7°c 1017.2 hPa 87% 4.0mm
30/08:30am WSW 8-9 kts 20.9°c 1017.1 hPa 87% 4.0mm
30/08:00am WSW 8-10 kts 20.4°c 1016.8 hPa 88% 4.0mm
30/07:30am WSW 9-11 kts 20.1°c 1016.5 hPa 90% 4.0mm
30/07:00am WSW 10-12 kts 19.9°c 1016.2 hPa 92% 4.0mm
30/06:30am W 10-12 kts 19.7°c 1016.1 hPa 93% 4.0mm
30/06:00am WSW 8-10 kts 20.1°c 1016.1 hPa 91% 4.0mm
30/05:30am WSW 9-10 kts 19.9°c 1015.9 hPa 91% 4.0mm
30/05:00am WSW 10-12 kts 19.8°c 1016.1 hPa 92% 4.0mm
30/04:30am WSW 12-15 kts 19.7°c 1016.3 hPa 93% 4.0mm
30/04:00am WSW 12-15 kts 19.7°c 1016.4 hPa 94% 4.0mm
30/03:30am WSW 12-14 kts 19.8°c 1016.6 hPa 95% 4.0mm
30/03:00am WSW 13-16 kts 19.6°c 1017.4 hPa 97% 4.0mm
30/02:30am WSW 12-15 kts 19.9°c 1017.5 hPa 94% 4.0mm
30/02:00am WSW 12-14 kts 20.0°c 1017.5 hPa 93% 4.0mm
30/01:30am WSW 9-12 kts 20.6°c 1017.8 hPa 90% 4.0mm
30/01:00am WSW 7-8 kts 20.9°c 1017.9 hPa 87% 4.0mm
30/12:30am WSW 7-10 kts 21.0°c 1018.1 hPa 87% 4.0mm
30/12:00am WSW 5-7 kts 21.2°c 1018.2 hPa 85% 4.0mm